When you browse on this site, cookies collect data to enhance your experience and personalize the content and advertising you see.
Visit our Privacy Policy to learn more. By continuing to use the site, you agree to this use of cookies and data.
EN

Hourly Weather Gojan i Eperm

Today, 23 September, Wednesday

Time Temperature Precipitation Wind Pressure Humidity
00:00 +15°C° 0.3 mm 1 mps 690 mmHg 84%
01:00 +15°C° 0 mm 1 mps 689 mmHg 86%
02:00 +15°C° 0.8 mm 1 mps 689 mmHg 86%
03:00 +15°C° 0.8 mm 1 mps 689 mmHg 87%
04:00 +15°C° 0.8 mm 1 mps 689 mmHg 87%
05:00 +16°C° 1.2 mm 1 mps 689 mmHg 87%
06:00 +16°C° 1.2 mm 1 mps 689 mmHg 86%
07:00 +18°C° 1.2 mm 1 mps 689 mmHg 85%
08:00 +18°C° 1.3 mm 2 mps 689 mmHg 79%
09:00 +19°C° 1.3 mm 2 mps 690 mmHg 73%
10:00 +21°C° 1.3 mm 2 mps 690 mmHg 67%
11:00 +21°C° 1.5 mm 3 mps 689 mmHg 66%
12:00 +21°C° 1.5 mm 3 mps 689 mmHg 66%
13:00 +22°C° 1.5 mm 3 mps 689 mmHg 65%
14:00 +21°C° 2.2 mm 3 mps 689 mmHg 69%
15:00 +20°C° 2.2 mm 3 mps 688 mmHg 74%
16:00 +19°C° 2.2 mm 2 mps 688 mmHg 78%
17:00 +18°C° 1.2 mm 2 mps 688 mmHg 82%
18:00 +17°C° 1.2 mm 2 mps 688 mmHg 85%
19:00 +16°C° 1.2 mm 2 mps 688 mmHg 88%
20:00 +16°C° 1.4 mm 2 mps 688 mmHg 89%
21:00 +16°C° 1.4 mm 1 mps 688 mmHg 89%
22:00 +15°C° 1.4 mm 1 mps 688 mmHg 89%
23:00 +16°C° 1.3 mm 1 mps 688 mmHg 89%

Tomorrow, 24 September, Thursday

Time Temperature Precipitation Wind Pressure Humidity
00:00 +16°C° 1.3 mm 1 mps 688 mmHg 88%
01:00 +16°C° 1.3 mm 1 mps 688 mmHg 88%
02:00 +16°C° 1.2 mm 1 mps 688 mmHg 87%
03:00 +15°C° 1.2 mm 1 mps 688 mmHg 87%
04:00 +15°C° 1.2 mm 1 mps 687 mmHg 87%
05:00 +16°C° 0.9 mm 1 mps 687 mmHg 86%
06:00 +16°C° 0.9 mm 1 mps 688 mmHg 85%
07:00 +18°C° 0.9 mm 1 mps 688 mmHg 84%
08:00 +19°C° 0.3 mm 1 mps 688 mmHg 77%
09:00 +21°C° 0.3 mm 1 mps 688 mmHg 70%
10:00 +21°C° 0.3 mm 2 mps 689 mmHg 63%
11:00 +21°C° 0.3 mm 2 mps 689 mmHg 61%
12:00 +23°C° 0.3 mm 2 mps 689 mmHg 59%
13:00 +22°C° 0.3 mm 3 mps 688 mmHg 57%
14:00 +22°C° 0.1 mm 3 mps 688 mmHg 60%
15:00 +21°C° 0.1 mm 2 mps 688 mmHg 62%
16:00 +20°C° 0.1 mm 2 mps 688 mmHg 65%
17:00 +19°C° 0 mm 2 mps 688 mmHg 72%
18:00 +18°C° 0 mm 1 mps 688 mmHg 80%
19:00 +16°C° 0 mm 1 mps 688 mmHg 87%
20:00 +16°C° 0 mm 1 mps 688 mmHg 87%
21:00 +15°C° 0 mm 1 mps 688 mmHg 87%
22:00 +15°C° 0 mm 1 mps 688 mmHg 87%
23:00 +15°C° 0 mm 1 mps 688 mmHg 88%

Day after tomorrow, 25 September, Friday

Time Temperature Precipitation Wind Pressure Humidity
00:00 +15°C° 0 mm 1 mps 687 mmHg 88%
01:00 +14°C° 0 mm 1 mps 687 mmHg 88%
02:00 +14°C° 0 mm 1 mps 687 mmHg 88%
03:00 +14°C° 0 mm 1 mps 687 mmHg 88%
04:00 +14°C° 0 mm 2 mps 686 mmHg 87%
05:00 +15°C° 0 mm 2 mps 686 mmHg 83%
06:00 +16°C° 0 mm 1 mps 686 mmHg 78%
07:00 +18°C° 0 mm 1 mps 686 mmHg 74%
08:00 +18°C° 0 mm 2 mps 686 mmHg 68%
09:00 +20°C° 0 mm 3 mps 686 mmHg 62%
10:00 +21°C° 0 mm 4 mps 686 mmHg 56%
11:00 +21°C° 0.3 mm 3 mps 686 mmHg 58%
12:00 +21°C° 0.3 mm 3 mps 685 mmHg 60%
13:00 +21°C° 0.3 mm 3 mps 685 mmHg 63%
14:00 +20°C° 0.5 mm 3 mps 684 mmHg 64%
15:00 +20°C° 0.5 mm 3 mps 683 mmHg 66%
16:00 +20°C° 0.5 mm 3 mps 683 mmHg 67%
17:00 +19°C° 0.4 mm 2 mps 682 mmHg 72%
18:00 +17°C° 0.4 mm 2 mps 682 mmHg 78%
19:00 +16°C° 0.4 mm 2 mps 682 mmHg 83%
20:00 +16°C° 1.6 mm 2 mps 681 mmHg 85%
21:00 +16°C° 1.6 mm 2 mps 681 mmHg 86%
22:00 +16°C° 1.6 mm 2 mps 680 mmHg 88%
23:00 +16°C° 1.3 mm 3 mps 680 mmHg 89%

26 September, Saturday

Time Temperature Precipitation Wind Pressure Humidity
00:00 +16°C° 1.3 mm 3 mps 679 mmHg 89%
01:00 +14°C° 1.3 mm 3 mps 678 mmHg 90%
02:00 +14°C° 2.5 mm 3 mps 677 mmHg 92%
03:00 +14°C° 2.5 mm 3 mps 677 mmHg 93%
04:00 +14°C° 2.5 mm 4 mps 676 mmHg 94%
05:00 +13°C° 3.6 mm 3 mps 676 mmHg 93%
06:00 +11°C° 3.6 mm 3 mps 676 mmHg 91%
07:00 +10°C° 3.6 mm 3 mps 676 mmHg 89%
08:00 +11°C° 0.9 mm 3 mps 676 mmHg 86%
09:00 +11°C° 0.9 mm 3 mps 676 mmHg 83%
10:00 +11°C° 0.9 mm 3 mps 676 mmHg 81%
11:00 +12°C° 0.6 mm 3 mps 676 mmHg 78%
12:00 +12°C° 0.6 mm 4 mps 676 mmHg 75%
13:00 +13°C° 0.6 mm 4 mps 676 mmHg 72%
14:00 +11°C° 1.5 mm 4 mps 676 mmHg 76%
15:00 +10°C° 1.5 mm 3 mps 675 mmHg 81%
16:00 +9°C° 1.5 mm 2 mps 675 mmHg 86%
17:00 +9°C° 1.2 mm 2 mps 675 mmHg 87%
18:00 +8°C° 1.2 mm 2 mps 676 mmHg 87%
19:00 +8°C° 1.2 mm 2 mps 676 mmHg 88%
20:00 +8°C° 2.1 mm 2 mps 676 mmHg 89%
21:00 +9°C° 2.1 mm 1 mps 677 mmHg 89%
22:00 +9°C° 2.1 mm 1 mps 677 mmHg 89%
23:00 +9°C° 0.4 mm 1 mps 677 mmHg 89%

27 September, Sunday

Time Temperature Precipitation Wind Pressure Humidity
00:00 +8°C° 0.4 mm 2 mps 677 mmHg 89%
01:00 +8°C° 0.4 mm 2 mps 678 mmHg 88%
02:00 +8°C° 1.2 mm 2 mps 678 mmHg 89%
03:00 +8°C° 1.2 mm 2 mps 678 mmHg 91%
04:00 +8°C° 1.2 mm 2 mps 678 mmHg 92%
05:00 +8°C° 0.9 mm 2 mps 679 mmHg 91%
06:00 +9°C° 0.9 mm 1 mps 680 mmHg 90%
07:00 +9°C° 0.9 mm 1 mps 680 mmHg 89%
08:00 +10°C° 0.9 mm 1 mps 681 mmHg 87%
09:00 +11°C° 0.9 mm 1 mps 681 mmHg 84%
10:00 +11°C° 0.9 mm 1 mps 682 mmHg 81%
11:00 +11°C° 0.9 mm 1 mps 682 mmHg 80%
12:00 +12°C° 0.9 mm 2 mps 683 mmHg 78%
13:00 +12°C° 0.9 mm 2 mps 683 mmHg 76%
14:00 +12°C° 1.2 mm 2 mps 683 mmHg 77%
15:00 +12°C° 1.2 mm 1 mps 683 mmHg 79%
16:00 +11°C° 1.2 mm 1 mps 684 mmHg 80%
17:00 +10°C° 0.7 mm 1 mps 684 mmHg 83%
18:00 +9°C° 0.7 mm 1 mps 684 mmHg 86%
19:00 +8°C° 0.7 mm 1 mps 685 mmHg 89%
20:00 +8°C° 0.2 mm 1 mps 685 mmHg 90%
21:00 +8°C° 0.2 mm 1 mps 686 mmHg 90%
22:00 +8°C° 0.2 mm 1 mps 686 mmHg 90%
23:00 +7°C° 0.1 mm 1 mps 686 mmHg 89%

28 September, Monday

Time Temperature Precipitation Wind Pressure Humidity
00:00 +7°C° 0.1 mm 1 mps 687 mmHg 89%
01:00 +7°C° 0.1 mm 1 mps 687 mmHg 88%
02:00 +7°C° 0.1 mm 1 mps 687 mmHg 88%
03:00 +7°C° 0.1 mm 1 mps 687 mmHg 87%
04:00 +7°C° 0.1 mm 1 mps 687 mmHg 87%
05:00 +7°C° 0 mm 1 mps 687 mmHg 85%
06:00 +8°C° 0 mm 1 mps 687 mmHg 83%
07:00 +9°C° 0 mm 1 mps 688 mmHg 81%
08:00 +11°C° 0 mm 1 mps 688 mmHg 73%
09:00 +12°C° 0 mm 2 mps 688 mmHg 65%
10:00 +14°C° 0 mm 2 mps 689 mmHg 57%
11:00 +15°C° 0 mm 2 mps 688 mmHg 54%
12:00 +15°C° 0 mm 2 mps 688 mmHg 51%
13:00 +16°C° 0 mm 3 mps 688 mmHg 49%
14:00 +16°C° 0 mm 2 mps 688 mmHg 54%
15:00 +15°C° 0 mm 1 mps 687 mmHg 59%
16:00 +14°C° 0 mm 1 mps 687 mmHg 64%
17:00 +14°C° 0.1 mm 1 mps 687 mmHg 68%
18:00 +13°C° 0.1 mm 1 mps 686 mmHg 72%
19:00 +12°C° 0.1 mm 1 mps 686 mmHg 76%
20:00 +12°C° 0.3 mm 1 mps 686 mmHg 79%
21:00 +12°C° 0.3 mm 1 mps 686 mmHg 81%
22:00 +11°C° 0.3 mm 1 mps 686 mmHg 84%
23:00 +12°C° 1 mm 2 mps 686 mmHg 86%
Show more